Time,TemperatureF,DewpointF,PressureIn,WindDirection,WindDirectionDegrees,WindSpeedMPH,WindSpeedGustMPH,Humidity,HourlyPrecipIn,Conditions,Clouds,dailyrainin,SoftwareType,DateUTC
2013-05-18 00:00:00,48.5,46.3,30.13,West,263,2.0,5.0,92,0.00,,,0.03,Wunderground v.1.15,2013-05-18 07:00:00,
2013-05-18 00:05:00,48.4,46.2,30.13,West,263,2.0,5.0,92,0.00,,,0.00,Wunderground v.1.15,2013-05-18 07:05:00,
2013-05-18 00:11:00,48.3,45.8,30.13,West,262,2.0,2.0,91,0.00,,,0.00,Wunderground v.1.15,2013-05-18 07:11:00,
2013-05-18 00:17:00,48.1,45.9,30.13,WSW,255,2.0,4.0,92,0.00,,,0.00,Wunderground v.1.15,2013-05-18 07:17:00,
2013-05-18 00:22:00,48.1,45.9,30.13,WSW,248,3.0,4.0,92,0.00,,,0.00,Wunderground v.1.15,2013-05-18 07:22:00,
2013-05-18 00:28:00,48.1,45.9,30.13,WSW,246,3.0,4.0,92,0.00,,,0.00,Wunderground v.1.15,2013-05-18 07:28:00,
2013-05-18 00:34:00,48.1,45.9,30.13,WSW,245,2.0,4.0,92,0.00,,,0.00,Wunderground v.1.15,2013-05-18 07:34:00,
2013-05-18 00:40:00,48.2,46.0,30.13,SW,223,3.0,3.0,92,0.00,,,0.00,Wunderground v.1.15,2013-05-18 07:40:00,
2013-05-18 00:46:00,48.3,46.4,30.13,SW,219,3.0,3.0,93,0.00,,,0.00,Wunderground v.1.15,2013-05-18 07:46:00,
2013-05-18 00:51:00,48.2,46.3,30.13,SW,215,3.0,3.0,93,0.00,,,0.00,Wunderground v.1.15,2013-05-18 07:51:00,
2013-05-18 00:56:00,48.2,46.3,30.13,SSW,213,3.0,5.0,93,0.00,,,0.00,Wunderground v.1.15,2013-05-18 07:56:00,
2013-05-18 01:02:00,48.1,46.2,30.13,SSW,213,2.0,5.0,93,0.00,,,0.00,Wunderground v.1.15,2013-05-18 08:02:00,
2013-05-18 01:08:00,48.1,46.2,30.13,SSW,212,2.0,5.0,93,0.00,,,0.00,Wunderground v.1.15,2013-05-18 08:08:00,
2013-05-18 01:14:00,48.0,46.1,30.13,SSW,212,2.0,5.0,93,0.00,,,0.00,Wunderground v.1.15,2013-05-18 08:14:00,
2013-05-18 01:19:00,48.0,46.1,30.13,SSW,212,2.0,5.0,93,0.00,,,0.00,Wunderground v.1.15,2013-05-18 08:19:00,
2013-05-18 01:25:00,48.0,46.1,30.13,SSW,212,2.0,5.0,93,0.00,,,0.00,Wunderground v.1.15,2013-05-18 08:25:00,
2013-05-18 01:31:00,48.0,46.1,30.13,SSW,212,2.0,5.0,93,0.00,,,0.00,Wunderground v.1.15,2013-05-18 08:31:00,
2013-05-18 01:37:00,47.9,46.0,30.13,SSW,211,3.0,5.0,93,0.00,,,0.00,Wunderground v.1.15,2013-05-18 08:37:00,
2013-05-18 01:42:00,47.8,45.9,30.13,SSW,211,3.0,5.0,93,0.00,,,0.00,Wunderground v.1.15,2013-05-18 08:42:00,
2013-05-18 01:48:00,47.7,45.8,30.13,SSW,210,3.0,5.0,93,0.00,,,0.00,Wunderground v.1.15,2013-05-18 08:48:00,
2013-05-18 01:54:00,47.7,45.8,30.13,SSW,209,3.0,5.0,93,0.00,,,0.00,Wunderground v.1.15,2013-05-18 08:54:00,
2013-05-18 01:59:00,47.7,45.8,30.13,SSW,202,3.0,5.0,93,0.00,,,0.00,Wunderground v.1.15,2013-05-18 08:59:00,
2013-05-18 02:05:00,47.7,45.8,30.13,South,190,3.0,5.0,93,0.00,,,0.00,Wunderground v.1.15,2013-05-18 09:05:00,
2013-05-18 02:10:00,47.7,45.8,30.13,South,179,4.0,5.0,93,0.00,,,0.00,Wunderground v.1.15,2013-05-18 09:10:00,
2013-05-18 02:16:00,47.7,45.8,30.13,South,177,3.0,5.0,93,0.00,,,0.00,Wunderground v.1.15,2013-05-18 09:16:00,
2013-05-18 02:22:00,47.7,45.8,30.13,South,175,3.0,5.0,93,0.00,,,0.00,Wunderground v.1.15,2013-05-18 09:22:00,
2013-05-18 02:27:00,47.7,45.8,30.13,South,175,3.0,5.0,93,0.00,,,0.00,Wunderground v.1.15,2013-05-18 09:27:00,
2013-05-18 02:33:00,47.7,45.8,30.13,South,169,3.0,5.0,93,0.00,,,0.00,Wunderground v.1.15,2013-05-18 09:33:00,
2013-05-18 02:38:00,47.8,45.9,30.13,SSE,167,3.0,5.0,93,0.00,,,0.00,Wunderground v.1.15,2013-05-18 09:38:00,
2013-05-18 02:44:00,47.8,45.9,30.13,SSE,166,3.0,5.0,93,0.00,,,0.00,Wunderground v.1.15,2013-05-18 09:44:00,
2013-05-18 02:49:00,47.8,45.9,30.12,SSE,166,3.0,5.0,93,0.00,,,0.00,Wunderground v.1.15,2013-05-18 09:49:00,
2013-05-18 02:54:00,47.9,46.0,30.13,SSE,166,3.0,5.0,93,0.00,,,0.00,Wunderground v.1.15,2013-05-18 09:54:00,
2013-05-18 03:00:00,47.9,46.0,30.12,SSE,165,3.0,3.0,93,0.00,,,0.00,Wunderground v.1.15,2013-05-18 10:00:00,
2013-05-18 03:05:00,48.0,46.1,30.12,SSE,165,3.0,5.0,93,0.00,,,0.00,Wunderground v.1.15,2013-05-18 10:05:00,
2013-05-18 03:11:00,48.0,46.1,30.12,SSE,164,3.0,5.0,93,0.00,,,0.00,Wunderground v.1.15,2013-05-18 10:11:00,
2013-05-18 03:16:00,48.0,46.1,30.12,SSE,163,4.0,6.0,93,0.00,,,0.00,Wunderground v.1.15,2013-05-18 10:16:00,
2013-05-18 03:21:00,48.0,46.1,30.13,SSE,163,3.0,5.0,93,0.00,,,0.00,Wunderground v.1.15,2013-05-18 10:21:00,
2013-05-18 03:27:00,48.1,46.2,30.12,SSE,161,3.0,5.0,93,0.00,,,0.00,Wunderground v.1.15,2013-05-18 10:27:00,
2013-05-18 03:32:00,48.1,46.2,30.13,SSE,161,3.0,5.0,93,0.00,,,0.00,Wunderground v.1.15,2013-05-18 10:32:00,
2013-05-18 03:38:00,48.2,46.3,30.13,SSE,161,3.0,5.0,93,0.00,,,0.00,Wunderground v.1.15,2013-05-18 10:38:00,
2013-05-18 03:44:00,48.2,46.3,30.12,SSE,161,3.0,5.0,93,0.00,,,0.00,Wunderground v.1.15,2013-05-18 10:44:00,
2013-05-18 03:49:00,48.3,46.4,30.12,SSE,161,3.0,5.0,93,0.00,,,0.00,Wunderground v.1.15,2013-05-18 10:49:00,
2013-05-18 03:55:00,48.3,46.4,30.12,SSE,161,3.0,5.0,93,0.00,,,0.00,Wunderground v.1.15,2013-05-18 10:55:00,
2013-05-18 04:01:00,48.3,46.1,30.12,SSE,161,3.0,5.0,92,0.00,,,0.00,Wunderground v.1.15,2013-05-18 11:01:00,
2013-05-18 04:07:00,48.4,46.2,30.12,SSE,161,3.0,6.0,92,0.00,,,0.00,Wunderground v.1.15,2013-05-18 11:07:00,
2013-05-18 04:13:00,48.3,46.1,30.12,SSE,161,3.0,5.0,92,0.00,,,0.00,Wunderground v.1.15,2013-05-18 11:13:00,
2013-05-18 04:19:00,48.3,46.1,30.11,SSE,161,3.0,5.0,92,0.00,,,0.00,Wunderground v.1.15,2013-05-18 11:19:00,
2013-05-18 04:25:00,48.3,46.1,30.11,SSE,161,3.0,5.0,92,0.00,,,0.00,Wunderground v.1.15,2013-05-18 11:25:00,
2013-05-18 04:30:00,48.4,46.2,30.11,SSE,161,3.0,3.0,92,0.00,,,0.00,Wunderground v.1.15,2013-05-18 11:30:00,
2013-05-18 04:36:00,48.4,46.2,30.11,SSE,161,2.0,5.0,92,0.00,,,0.00,Wunderground v.1.15,2013-05-18 11:36:00,
2013-05-18 04:41:00,48.5,46.3,30.11,SSE,161,2.0,5.0,92,0.00,,,0.00,Wunderground v.1.15,2013-05-18 11:41:00,
2013-05-18 04:46:00,48.5,46.3,30.12,SSE,161,1.0,5.0,92,0.00,,,0.00,Wunderground v.1.15,2013-05-18 11:46:00,
2013-05-18 04:52:00,48.6,46.4,30.11,SSE,161,1.0,5.0,92,0.00,,,0.00,Wunderground v.1.15,2013-05-18 11:52:00,
2013-05-18 04:57:00,48.7,46.5,30.12,SSE,161,2.0,5.0,92,0.00,,,0.00,Wunderground v.1.15,2013-05-18 11:57:00,
2013-05-18 05:03:00,48.8,46.6,30.12,SSE,161,2.0,5.0,92,0.00,,,0.00,Wunderground v.1.15,2013-05-18 12:03:00,
2013-05-18 05:09:00,48.8,46.3,30.12,SSE,161,2.0,5.0,91,0.00,,,0.00,Wunderground v.1.15,2013-05-18 12:09:00,
2013-05-18 05:15:00,48.7,46.2,30.11,SSE,161,2.0,5.0,91,0.00,,,0.00,Wunderground v.1.15,2013-05-18 12:15:00,
2013-05-18 05:21:00,48.6,46.4,30.12,SSE,161,2.0,5.0,92,0.00,,,0.00,Wunderground v.1.15,2013-05-18 12:21:00,
2013-05-18 05:27:00,48.5,46.3,30.12,SSE,161,2.0,5.0,92,0.00,,,0.00,Wunderground v.1.15,2013-05-18 12:27:00,
2013-05-18 05:33:00,48.5,46.3,30.12,SSE,161,2.0,5.0,92,0.00,,,0.00,Wunderground v.1.15,2013-05-18 12:33:00,
2013-05-18 05:39:00,48.5,46.3,30.12,SSE,161,2.0,5.0,92,0.00,,,0.00,Wunderground v.1.15,2013-05-18 12:39:00,
2013-05-18 05:45:00,48.5,46.3,30.12,SSE,161,2.0,5.0,92,0.00,,,0.00,Wunderground v.1.15,2013-05-18 12:45:00,
2013-05-18 05:50:00,48.5,46.3,30.12,SSE,161,2.0,5.0,92,0.00,,,0.00,Wunderground v.1.15,2013-05-18 12:50:00,
2013-05-18 05:56:00,48.6,46.4,30.12,SSE,160,3.0,5.0,92,0.00,,,0.00,Wunderground v.1.15,2013-05-18 12:56:00,
2013-05-18 06:01:00,48.8,46.6,30.12,SSE,164,3.0,5.0,92,0.00,,,0.00,Wunderground v.1.15,2013-05-18 13:01:00,
2013-05-18 06:07:00,48.9,46.7,30.12,SSE,164,3.0,5.0,92,0.00,,,0.00,Wunderground v.1.15,2013-05-18 13:07:00,
2013-05-18 06:13:00,49.0,46.8,30.13,SSE,164,3.0,5.0,92,0.00,,,0.00,Wunderground v.1.15,2013-05-18 13:13:00,
2013-05-18 06:19:00,49.0,46.8,30.13,SSE,164,3.0,5.0,92,0.00,,,0.00,Wunderground v.1.15,2013-05-18 13:19:00,
2013-05-18 06:25:00,49.2,47.0,30.12,SSE,164,3.0,5.0,92,0.00,,,0.00,Wunderground v.1.15,2013-05-18 13:25:00,
2013-05-18 06:31:00,49.2,47.0,30.13,SSE,163,3.0,5.0,92,0.00,,,0.00,Wunderground v.1.15,2013-05-18 13:31:00,
2013-05-18 06:36:00,49.2,47.0,30.13,SSE,164,3.0,6.0,92,0.00,,,0.00,Wunderground v.1.15,2013-05-18 13:36:00,
2013-05-18 06:41:00,49.3,47.1,30.13,SSE,163,4.0,4.0,92,0.00,,,0.00,Wunderground v.1.15,2013-05-18 13:41:00,
2013-05-18 06:55:00,49.6,47.4,30.13,South,172,4.0,8.0,92,0.00,,,0.00,Wunderground v.1.15,2013-05-18 13:55:00,
2013-05-18 07:02:00,49.8,47.6,30.13,South,174,5.0,7.0,92,0.00,,,0.00,Wunderground v.1.15,2013-05-18 14:02:00,
2013-05-18 07:08:00,49.9,47.7,30.13,South,175,4.0,7.0,92,0.00,,,0.00,Wunderground v.1.15,2013-05-18 14:08:00,
2013-05-18 07:14:00,50.1,47.9,30.14,South,180,4.0,6.0,92,0.00,,,0.00,Wunderground v.1.15,2013-05-18 14:14:00,
2013-05-18 07:19:00,50.3,48.1,30.14,South,170,4.0,6.0,92,0.00,,,0.00,Wunderground v.1.15,2013-05-18 14:19:00,
2013-05-18 07:25:00,50.4,48.2,30.14,South,184,4.0,8.0,92,0.00,,,0.00,Wunderground v.1.15,2013-05-18 14:25:00,
2013-05-18 07:30:00,50.5,48.3,30.14,South,173,5.0,7.0,92,0.00,,,0.00,Wunderground v.1.15,2013-05-18 14:30:00,
2013-05-18 07:35:00,50.6,48.1,30.14,South,175,6.0,9.0,91,0.00,,,0.00,Wunderground v.1.15,2013-05-18 14:35:00,
2013-05-18 07:41:00,50.8,48.3,30.14,South,176,7.0,8.0,91,0.00,,,0.00,Wunderground v.1.15,2013-05-18 14:41:00,
2013-05-18 07:47:00,50.9,48.1,30.14,South,189,8.0,12.0,90,0.00,,,0.00,Wunderground v.1.15,2013-05-18 14:47:00,
2013-05-18 07:53:00,50.9,48.1,30.14,South,190,8.0,12.0,90,0.00,,,0.00,Wunderground v.1.15,2013-05-18 14:53:00,
2013-05-18 07:59:00,50.9,48.1,30.14,SSW,205,7.0,11.0,90,0.00,,,0.00,Wunderground v.1.15,2013-05-18 14:59:00,
2013-05-18 08:04:00,50.9,48.1,30.14,SSW,196,8.0,13.0,90,0.00,,,0.00,Wunderground v.1.15,2013-05-18 15:04:00,
2013-05-18 08:10:00,51.0,48.2,30.14,South,178,9.0,9.0,90,0.00,,,0.00,Wunderground v.1.15,2013-05-18 15:10:00,
2013-05-18 08:15:00,50.9,48.1,30.14,South,180,9.0,11.0,90,0.00,,,0.00,Wunderground v.1.15,2013-05-18 15:15:00,
2013-05-18 08:21:00,51.0,47.9,30.14,SSW,198,9.0,11.0,89,0.00,,,0.00,Wunderground v.1.15,2013-05-18 15:21:00,
2013-05-18 08:26:00,50.9,47.8,30.14,South,182,9.0,11.0,89,0.00,,,0.00,Wunderground v.1.15,2013-05-18 15:26:00,
2013-05-18 08:32:00,51.0,47.9,30.15,SSW,202,9.0,12.0,89,0.00,,,0.00,Wunderground v.1.15,2013-05-18 15:32:00,
2013-05-18 08:38:00,51.1,48.0,30.14,South,184,10.0,12.0,89,0.00,,,0.00,Wunderground v.1.15,2013-05-18 15:38:00,
2013-05-18 08:44:00,51.2,48.1,30.15,SSW,203,10.0,14.0,89,0.00,,,0.00,Wunderground v.1.15,2013-05-18 15:44:00,
2013-05-18 08:49:00,51.4,48.3,30.15,SSW,207,9.0,14.0,89,0.00,,,0.00,Wunderground v.1.15,2013-05-18 15:49:00,
2013-05-18 08:54:00,51.4,48.0,30.14,South,174,9.0,13.0,88,0.00,,,0.00,Wunderground v.1.15,2013-05-18 15:54:00,
2013-05-18 08:59:00,51.5,48.1,30.14,SSW,194,10.0,14.0,88,0.00,,,0.00,Wunderground v.1.15,2013-05-18 15:59:00,
2013-05-18 09:05:00,51.6,47.9,30.15,SSW,195,10.0,14.0,87,0.00,,,0.00,Wunderground v.1.15,2013-05-18 16:05:00,
2013-05-18 09:11:00,51.8,48.4,30.14,SW,217,10.0,10.0,88,0.00,,,0.00,Wunderground v.1.15,2013-05-18 16:11:00,
2013-05-18 09:17:00,51.9,48.5,30.14,SSW,194,10.0,10.0,88,0.00,,,0.00,Wunderground v.1.15,2013-05-18 16:17:00,
2013-05-18 09:22:00,52.0,48.3,30.14,SSW,192,9.0,12.0,87,0.00,,,0.00,Wunderground v.1.15,2013-05-18 16:22:00,
2013-05-18 09:27:00,52.0,48.6,30.15,South,191,9.0,14.0,88,0.00,,,0.00,Wunderground v.1.15,2013-05-18 16:27:00,
2013-05-18 09:33:00,52.1,48.3,30.15,SSW,209,10.0,13.0,87,0.00,,,0.00,Wunderground v.1.15,2013-05-18 16:33:00,
2013-05-18 09:39:00,52.1,48.0,30.15,SSW,196,10.0,13.0,86,0.00,,,0.00,Wunderground v.1.15,2013-05-18 16:39:00,
2013-05-18 09:44:00,52.1,48.0,30.15,SSW,207,11.0,15.0,86,0.00,,,0.00,Wunderground v.1.15,2013-05-18 16:44:00,
2013-05-18 09:49:00,52.2,48.4,30.15,SSW,194,11.0,15.0,87,0.00,,,0.00,Wunderground v.1.15,2013-05-18 16:49:00,
2013-05-18 09:54:00,52.3,48.5,30.14,SSW,205,11.0,18.0,87,0.00,,,0.00,Wunderground v.1.15,2013-05-18 16:54:00,
2013-05-18 10:00:00,52.5,48.4,30.15,SSW,197,12.0,12.0,86,0.00,,,0.00,Wunderground v.1.15,2013-05-18 17:00:00,
2013-05-18 10:06:00,52.6,48.2,30.15,SSW,196,12.0,14.0,85,0.00,,,0.00,Wunderground v.1.15,2013-05-18 17:06:00,
2013-05-18 10:11:00,52.9,48.5,30.15,SSW,200,11.0,17.0,85,0.00,,,0.00,Wunderground v.1.15,2013-05-18 17:11:00,
2013-05-18 10:16:00,52.9,48.5,30.15,South,186,10.0,17.0,85,0.00,,,0.00,Wunderground v.1.15,2013-05-18 17:16:00,
2013-05-18 10:21:00,53.0,48.3,30.15,SSW,207,10.0,11.0,84,0.00,,,0.00,Wunderground v.1.15,2013-05-18 17:21:00,
2013-05-18 10:27:00,53.0,48.3,30.15,SSW,200,11.0,15.0,84,0.00,,,0.00,Wunderground v.1.15,2013-05-18 17:27:00,
2013-05-18 10:33:00,53.1,48.4,30.15,SSW,196,11.0,16.0,84,0.00,,,0.00,Wunderground v.1.15,2013-05-18 17:33:00,
2013-05-18 10:39:00,52.8,47.8,30.15,SSW,202,12.0,17.0,83,0.00,,,0.00,Wunderground v.1.15,2013-05-18 17:39:00,
2013-05-18 10:44:00,52.8,47.8,30.15,SSW,200,12.0,14.0,83,0.00,,,0.00,Wunderground v.1.15,2013-05-18 17:44:00,
2013-05-18 10:49:00,52.8,47.8,30.16,SSW,202,12.0,14.0,83,0.00,,,0.00,Wunderground v.1.15,2013-05-18 17:49:00,
2013-05-18 10:55:00,52.9,47.9,30.16,South,184,12.0,16.0,83,0.00,,,0.00,Wunderground v.1.15,2013-05-18 17:55:00,
2013-05-18 11:01:00,52.9,47.9,30.16,South,185,13.0,13.0,83,0.00,,,0.00,Wunderground v.1.15,2013-05-18 18:01:00,
2013-05-18 11:07:00,53.2,48.2,30.16,SSW,205,12.0,16.0,83,0.00,,,0.00,Wunderground v.1.15,2013-05-18 18:07:00,
2013-05-18 11:12:00,53.1,48.1,30.16,SW,219,11.0,15.0,83,0.00,,,0.00,Wunderground v.1.15,2013-05-18 18:12:00,
2013-05-18 11:18:00,53.0,48.0,30.16,SSW,196,11.0,16.0,83,0.00,,,0.00,Wunderground v.1.15,2013-05-18 18:18:00,
2013-05-18 11:23:00,53.4,48.4,30.16,SSW,209,11.0,15.0,83,0.00,,,0.00,Wunderground v.1.15,2013-05-18 18:23:00,
2013-05-18 11:29:00,53.4,48.4,30.16,South,190,11.0,15.0,83,0.00,,,0.00,Wunderground v.1.15,2013-05-18 18:29:00,
2013-05-18 11:34:00,53.2,48.2,30.17,SSW,194,11.0,16.0,83,0.00,,,0.00,Wunderground v.1.15,2013-05-18 18:34:00,
2013-05-18 11:39:00,53.3,48.3,30.17,SSW,213,11.0,16.0,83,0.00,,,0.00,Wunderground v.1.15,2013-05-18 18:39:00,
2013-05-18 11:44:00,53.3,48.6,30.17,SSW,211,11.0,17.0,84,0.00,,,0.00,Wunderground v.1.15,2013-05-18 18:44:00,
2013-05-18 11:50:00,53.0,48.3,30.17,SSW,197,11.0,11.0,84,0.00,,,0.00,Wunderground v.1.15,2013-05-18 18:50:00,
2013-05-18 11:56:00,53.0,48.3,30.18,SSW,198,12.0,17.0,84,0.00,,,0.00,Wunderground v.1.15,2013-05-18 18:56:00,
2013-05-18 12:02:00,53.4,49.0,30.18,SSW,200,12.0,12.0,85,0.00,,,0.00,Wunderground v.1.15,2013-05-18 19:02:00,
2013-05-18 12:08:00,53.1,48.7,30.18,SSW,209,12.0,17.0,85,0.00,,,0.00,Wunderground v.1.15,2013-05-18 19:08:00,
2013-05-18 12:14:00,53.1,48.7,30.18,SSW,209,13.0,19.0,85,0.00,,,0.00,Wunderground v.1.15,2013-05-18 19:14:00,
2013-05-18 12:19:00,53.3,48.9,30.18,SW,232,11.0,19.0,85,0.00,,,0.00,Wunderground v.1.15,2013-05-18 19:19:00,
2013-05-18 12:24:00,53.2,48.8,30.19,SSW,199,11.0,13.0,85,0.00,,,0.00,Wunderground v.1.15,2013-05-18 19:24:00,
2013-05-18 12:30:00,53.5,49.1,30.19,SW,214,11.0,12.0,85,0.00,,,0.00,Wunderground v.1.15,2013-05-18 19:30:00,
2013-05-18 12:35:00,53.8,49.4,30.19,SW,215,11.0,13.0,85,0.00,,,0.00,Wunderground v.1.15,2013-05-18 19:35:00,
2013-05-18 12:41:00,53.5,49.4,30.19,SSW,202,11.0,13.0,86,0.00,,,0.00,Wunderground v.1.15,2013-05-18 19:41:00,
2013-05-18 12:47:00,53.2,49.1,30.19,SSW,209,12.0,16.0,86,0.00,,,0.00,Wunderground v.1.15,2013-05-18 19:47:00,
2013-05-18 12:52:00,53.1,49.0,30.19,SSW,206,13.0,15.0,86,0.00,,,0.00,Wunderground v.1.15,2013-05-18 19:52:00,
2013-05-18 12:58:00,52.8,48.7,30.19,SSW,212,13.0,19.0,86,0.00,,,0.00,Wunderground v.1.15,2013-05-18 19:58:00,
2013-05-18 13:04:00,52.8,48.7,30.20,SSW,194,13.0,14.0,86,0.00,,,0.00,Wunderground v.1.15,2013-05-18 20:04:00,
2013-05-18 13:09:00,52.6,48.5,30.20,SSW,201,13.0,17.0,86,0.00,,,0.00,Wunderground v.1.15,2013-05-18 20:09:00,
2013-05-18 13:15:00,52.5,48.1,30.20,SSW,205,13.0,16.0,85,0.00,,,0.00,Wunderground v.1.15,2013-05-18 20:15:00,
2013-05-18 13:21:00,52.5,48.4,30.20,SSW,195,13.0,13.0,86,0.00,,,0.00,Wunderground v.1.15,2013-05-18 20:21:00,
2013-05-18 13:27:00,52.6,48.5,30.20,SSW,207,11.0,16.0,86,0.00,,,0.00,Wunderground v.1.15,2013-05-18 20:27:00,
2013-05-18 13:32:00,52.5,48.7,30.21,SSW,203,10.0,15.0,87,0.00,,,0.00,Wunderground v.1.15,2013-05-18 20:32:00,
2013-05-18 13:37:00,52.8,49.3,30.21,SW,216,10.0,15.0,88,0.00,,,0.00,Wunderground v.1.15,2013-05-18 20:37:00,
2013-05-18 13:42:00,52.6,49.1,30.21,South,175,10.0,17.0,88,0.00,,,0.00,Wunderground v.1.15,2013-05-18 20:42:00,
2013-05-18 13:48:00,52.7,49.2,30.21,SSW,205,11.0,17.0,88,0.00,,,0.00,Wunderground v.1.15,2013-05-18 20:48:00,
2013-05-18 13:54:00,52.4,48.9,30.22,SSW,202,11.0,16.0,88,0.00,,,0.00,Wunderground v.1.15,2013-05-18 20:54:00,
2013-05-18 14:00:00,52.0,48.9,30.22,SSW,210,12.0,12.0,89,0.00,,,0.00,Wunderground v.1.15,2013-05-18 21:00:00,
2013-05-18 14:05:00,52.0,48.9,30.22,SSW,200,11.0,13.0,89,0.00,,,0.00,Wunderground v.1.15,2013-05-18 21:05:00,
2013-05-18 14:11:00,52.4,49.3,30.22,SSW,194,10.0,10.0,89,0.00,,,0.00,Wunderground v.1.15,2013-05-18 21:11:00,
2013-05-18 14:17:00,52.7,49.2,30.22,SSE,166,10.0,11.0,88,0.00,,,0.00,Wunderground v.1.15,2013-05-18 21:17:00,
2013-05-18 14:22:00,53.0,49.5,30.22,SSW,202,10.0,13.0,88,0.00,,,0.00,Wunderground v.1.15,2013-05-18 21:22:00,
2013-05-18 14:28:00,53.1,49.3,30.22,SSW,194,9.0,13.0,87,0.00,,,0.00,Wunderground v.1.15,2013-05-18 21:28:00,
2013-05-18 14:34:00,52.7,48.9,30.22,SSW,206,10.0,14.0,87,0.00,,,0.00,Wunderground v.1.15,2013-05-18 21:34:00,
2013-05-18 14:40:00,52.5,48.7,30.22,SSW,199,11.0,13.0,87,0.00,,,0.00,Wunderground v.1.15,2013-05-18 21:40:00,
2013-05-18 14:46:00,52.1,49.0,30.23,SSW,208,11.0,15.0,89,0.00,,,0.00,Wunderground v.1.15,2013-05-18 21:46:00,
2013-05-18 14:51:00,52.1,49.0,30.23,SW,216,11.0,12.0,89,0.00,,,0.00,Wunderground v.1.15,2013-05-18 21:51:00,
2013-05-18 14:56:00,52.1,49.3,30.23,SW,214,10.0,12.0,90,0.00,,,0.00,Wunderground v.1.15,2013-05-18 21:56:00,
2013-05-18 15:02:00,52.1,49.3,30.23,SSW,202,9.0,10.0,90,0.00,,,0.00,Wunderground v.1.15,2013-05-18 22:02:00,
2013-05-18 15:08:00,52.0,49.2,30.23,SSW,198,9.0,18.0,90,0.00,,,0.00,Wunderground v.1.15,2013-05-18 22:08:00,
2013-05-18 15:13:00,51.9,49.4,30.24,SSW,207,9.0,12.0,91,0.00,,,0.00,Wunderground v.1.15,2013-05-18 22:13:00,
2013-05-18 15:18:00,51.8,49.3,30.24,SSW,209,9.0,12.0,91,0.00,,,0.00,Wunderground v.1.15,2013-05-18 22:18:00,
2013-05-18 15:23:00,51.6,49.4,30.24,SSW,199,9.0,12.0,92,0.00,,,0.00,Wunderground v.1.15,2013-05-18 22:23:00,
2013-05-18 15:29:00,51.5,49.3,30.24,SSW,207,10.0,17.0,92,0.00,,,0.00,Wunderground v.1.15,2013-05-18 22:29:00,
2013-05-18 15:35:00,51.5,49.0,30.24,SSW,195,10.0,16.0,91,0.00,,,0.00,Wunderground v.1.15,2013-05-18 22:35:00,
2013-05-18 15:41:00,51.8,49.3,30.24,South,191,11.0,16.0,91,0.00,,,0.00,Wunderground v.1.15,2013-05-18 22:41:00,
2013-05-18 15:47:00,52.0,49.2,30.24,SSW,201,10.0,16.0,90,0.00,,,0.00,Wunderground v.1.15,2013-05-18 22:47:00,
2013-05-18 15:52:00,51.5,48.7,30.25,SSW,210,11.0,12.0,90,0.00,,,0.00,Wunderground v.1.15,2013-05-18 22:52:00,
2013-05-18 15:58:00,51.4,48.6,30.25,SSW,204,12.0,16.0,90,0.00,,,0.00,Wunderground v.1.15,2013-05-18 22:58:00,
2013-05-18 16:04:00,51.4,48.9,30.25,SSW,200,10.0,12.0,91,0.00,,,0.00,Wunderground v.1.15,2013-05-18 23:04:00,
2013-05-18 16:09:00,51.4,48.9,30.26,SSW,198,9.0,12.0,91,0.00,,,0.00,Wunderground v.1.15,2013-05-18 23:09:00,
2013-05-18 16:15:00,51.3,49.1,30.26,SSW,194,9.0,10.0,92,0.00,,,0.00,Wunderground v.1.15,2013-05-18 23:15:00,
2013-05-18 16:21:00,51.2,49.0,30.26,SSW,200,10.0,14.0,92,0.00,,,0.00,Wunderground v.1.15,2013-05-18 23:21:00,
2013-05-18 16:27:00,51.0,49.0,30.26,SSW,198,10.0,14.0,93,0.00,,,0.00,Wunderground v.1.15,2013-05-18 23:27:00,
2013-05-18 16:33:00,51.2,49.2,30.26,SSW,197,9.0,9.0,93,0.00,,,0.00,Wunderground v.1.15,2013-05-18 23:33:00,
2013-05-18 16:38:00,51.3,49.3,30.26,SSW,203,8.0,9.0,93,0.00,,,0.00,Wunderground v.1.15,2013-05-18 23:38:00,
2013-05-18 16:44:00,51.3,49.3,30.26,SSW,199,8.0,9.0,93,0.00,,,0.00,Wunderground v.1.15,2013-05-18 23:44:00,
2013-05-18 16:50:00,51.3,49.3,30.27,SSW,202,7.0,7.0,93,0.00,,,0.00,Wunderground v.1.15,2013-05-18 23:50:00,
2013-05-18 16:56:00,51.3,49.3,30.27,SSW,196,7.0,10.0,93,0.00,,,0.00,Wunderground v.1.15,2013-05-18 23:56:00,
2013-05-18 17:02:00,51.3,49.6,30.27,SSW,202,7.0,9.0,94,0.00,,,0.00,Wunderground v.1.15,2013-05-19 00:02:00,
2013-05-18 17:08:00,51.5,49.8,30.27,SSW,192,6.0,9.0,94,0.00,,,0.00,Wunderground v.1.15,2013-05-19 00:08:00,
2013-05-18 17:13:00,51.6,49.6,30.27,SSW,196,7.0,9.0,93,0.00,,,0.00,Wunderground v.1.15,2013-05-19 00:13:00,
2013-05-18 17:19:00,51.7,50.0,30.27,SSW,205,7.0,9.0,94,0.00,,,0.00,Wunderground v.1.15,2013-05-19 00:19:00,
2013-05-18 17:25:00,51.8,50.1,30.27,SSW,203,6.0,9.0,94,0.00,,,0.00,Wunderground v.1.15,2013-05-19 00:25:00,
2013-05-18 17:30:00,51.6,49.9,30.27,SSW,200,6.0,9.0,94,0.00,,,0.00,Wunderground v.1.15,2013-05-19 00:30:00,
2013-05-18 17:35:00,51.5,49.8,30.27,SSW,197,6.0,9.0,94,0.00,,,0.00,Wunderground v.1.15,2013-05-19 00:35:00,
2013-05-18 17:41:00,51.5,49.8,30.27,SW,215,7.0,9.0,94,0.00,,,0.00,Wunderground v.1.15,2013-05-19 00:41:00,
2013-05-18 17:46:00,51.6,49.9,30.27,SW,221,7.0,9.0,94,0.00,,,0.00,Wunderground v.1.15,2013-05-19 00:46:00,
2013-05-18 17:52:00,51.9,50.2,30.27,SW,216,5.0,9.0,94,0.00,,,0.00,Wunderground v.1.15,2013-05-19 00:52:00,
2013-05-18 17:58:00,51.7,50.0,30.28,SW,219,5.0,9.0,94,0.00,,,0.00,Wunderground v.1.15,2013-05-19 00:58:00,
2013-05-18 18:04:00,51.8,50.1,30.28,SW,219,4.0,9.0,94,0.00,,,0.00,Wunderground v.1.15,2013-05-19 01:04:00,
2013-05-18 18:09:00,51.7,50.0,30.28,SW,216,5.0,9.0,94,0.00,,,0.00,Wunderground v.1.15,2013-05-19 01:09:00,
2013-05-18 18:14:00,51.7,50.0,30.28,SSW,205,5.0,9.0,94,0.00,,,0.00,Wunderground v.1.15,2013-05-19 01:14:00,
2013-05-18 18:20:00,51.5,49.8,30.28,SSW,213,5.0,5.0,94,0.00,,,0.01,Wunderground v.1.15,2013-05-19 01:20:00,
2013-05-18 18:26:00,51.6,49.9,30.28,NW,306,5.0,9.0,94,0.00,,,0.01,Wunderground v.1.15,2013-05-19 01:26:00,
2013-05-18 18:32:00,51.6,49.9,30.28,WNW,299,5.0,9.0,94,0.00,,,0.01,Wunderground v.1.15,2013-05-19 01:32:00,
2013-05-18 18:38:00,51.7,50.0,30.28,NW,311,6.0,9.0,94,0.00,,,0.01,Wunderground v.1.15,2013-05-19 01:38:00,
2013-05-18 18:43:00,51.7,49.7,30.28,NW,321,7.0,9.0,93,0.00,,,0.01,Wunderground v.1.15,2013-05-19 01:43:00,
2013-05-18 18:49:00,52.0,50.3,30.28,West,271,6.0,9.0,94,0.00,,,0.01,Wunderground v.1.15,2013-05-19 01:49:00,
2013-05-18 18:54:00,51.7,49.7,30.28,WNW,291,5.0,9.0,93,0.00,,,0.01,Wunderground v.1.15,2013-05-19 01:54:00,
2013-05-18 18:59:00,51.7,49.7,30.28,WNW,300,5.0,9.0,93,0.00,,,0.01,Wunderground v.1.15,2013-05-19 01:59:00,
2013-05-18 19:05:00,51.7,49.7,30.28,WNW,286,5.0,9.0,93,0.00,,,0.01,Wunderground v.1.15,2013-05-19 02:05:00,
2013-05-18 19:10:00,51.7,49.5,30.29,WNW,290,5.0,9.0,92,0.00,,,0.01,Wunderground v.1.15,2013-05-19 02:10:00,
2013-05-18 19:16:00,51.9,49.6,30.29,NW,306,5.0,9.0,92,0.00,,,0.01,Wunderground v.1.15,2013-05-19 02:16:00,
2013-05-18 19:21:00,52.0,49.7,30.29,NW,306,5.0,9.0,92,0.00,,,0.01,Wunderground v.1.15,2013-05-19 02:21:00,
2013-05-18 19:27:00,51.9,49.6,30.29,NW,316,5.0,9.0,92,0.00,,,0.01,Wunderground v.1.15,2013-05-19 02:27:00,
2013-05-18 19:32:00,52.0,49.5,30.29,NW,317,6.0,9.0,91,0.00,,,0.01,Wunderground v.1.15,2013-05-19 02:32:00,
2013-05-18 19:37:00,51.9,49.4,30.29,NW,309,6.0,9.0,91,0.00,,,0.01,Wunderground v.1.15,2013-05-19 02:37:00,
2013-05-18 19:43:00,52.0,49.5,30.30,WNW,301,6.0,9.0,91,0.00,,,0.01,Wunderground v.1.15,2013-05-19 02:43:00,
2013-05-18 19:49:00,52.0,49.5,30.30,NW,325,7.0,11.0,91,0.00,,,0.01,Wunderground v.1.15,2013-05-19 02:49:00,
2013-05-18 19:54:00,51.9,49.4,30.30,NW,318,9.0,12.0,91,0.00,,,0.01,Wunderground v.1.15,2013-05-19 02:54:00,
2013-05-18 20:00:00,51.8,49.3,30.30,NW,317,10.0,10.0,91,0.00,,,0.01,Wunderground v.1.15,2013-05-19 03:00:00,
2013-05-18 20:05:00,51.6,49.1,30.30,NW,321,10.0,14.0,91,0.00,,,0.01,Wunderground v.1.15,2013-05-19 03:05:00,
2013-05-18 20:11:00,51.2,49.0,30.30,NNW,329,11.0,11.0,92,0.00,,,0.01,Wunderground v.1.15,2013-05-19 03:11:00,
2013-05-18 20:16:00,51.1,48.9,30.30,NNW,329,11.0,11.0,92,0.00,,,0.01,Wunderground v.1.15,2013-05-19 03:16:00,
2013-05-18 20:21:00,51.1,48.9,30.30,NW,325,9.0,10.0,92,0.00,,,0.01,Wunderground v.1.15,2013-05-19 03:21:00,
2013-05-18 20:27:00,51.1,48.9,30.31,NW,315,8.0,10.0,92,0.00,,,0.01,Wunderground v.1.15,2013-05-19 03:27:00,
2013-05-18 20:32:00,51.1,48.9,30.31,NW,324,8.0,10.0,92,0.00,,,0.01,Wunderground v.1.15,2013-05-19 03:32:00,
2013-05-18 20:38:00,51.2,49.2,30.31,NW,321,8.0,10.0,93,0.00,,,0.01,Wunderground v.1.15,2013-05-19 03:38:00,
2013-05-18 20:43:00,51.2,49.2,30.31,NW,322,9.0,10.0,93,0.00,,,0.01,Wunderground v.1.15,2013-05-19 03:43:00,
2013-05-18 20:49:00,51.2,49.2,30.31,NW,314,9.0,10.0,93,0.00,,,0.01,Wunderground v.1.15,2013-05-19 03:49:00,
2013-05-18 20:54:00,51.2,49.2,30.31,NW,319,8.0,9.0,93,0.00,,,0.01,Wunderground v.1.15,2013-05-19 03:54:00,
2013-05-18 21:00:00,51.2,49.0,30.31,NW,313,8.0,8.0,92,0.00,,,0.01,Wunderground v.1.15,2013-05-19 04:00:00,
2013-05-18 21:01:00,51.2,49.0,30.31,NW,313,8.0,9.0,92,0.00,,,0.01,Wunderground v.1.15,2013-05-19 04:01:00,
2013-05-18 21:02:00,51.2,49.0,30.31,NW,324,8.0,9.0,92,0.00,,,0.01,Wunderground v.1.15,2013-05-19 04:02:00,
2013-05-18 21:03:00,51.2,49.0,30.31,NW,309,8.0,9.0,92,0.00,,,0.01,Wunderground v.1.15,2013-05-19 04:03:00,
2013-05-18 21:06:00,51.2,49.0,30.32,NW,310,8.0,9.0,92,0.00,,,0.01,Wunderground v.1.15,2013-05-19 04:06:00,
2013-05-18 21:09:00,51.3,49.1,30.32,NW,319,8.0,10.0,92,0.00,,,0.01,Wunderground v.1.15,2013-05-19 04:09:00,
2013-05-18 21:14:00,51.3,49.1,30.32,NW,321,7.0,9.0,92,0.00,,,0.01,Wunderground v.1.15,2013-05-19 04:14:00,
2013-05-18 21:20:00,51.4,49.2,30.32,NNW,327,6.0,9.0,92,0.00,,,0.01,Wunderground v.1.15,2013-05-19 04:20:00,
2013-05-18 21:25:00,51.5,49.3,30.32,NW,319,6.0,9.0,92,0.00,,,0.01,Wunderground v.1.15,2013-05-19 04:25:00,
2013-05-18 21:31:00,51.5,49.3,30.32,NW,323,5.0,9.0,92,0.00,,,0.01,Wunderground v.1.15,2013-05-19 04:31:00,
2013-05-18 21:36:00,51.5,49.3,30.32,NNW,330,6.0,9.0,92,0.00,,,0.01,Wunderground v.1.15,2013-05-19 04:36:00,
2013-05-18 21:42:00,51.5,49.3,30.33,NW,325,7.0,9.0,92,0.00,,,0.01,Wunderground v.1.15,2013-05-19 04:42:00,
2013-05-18 21:48:00,51.5,49.3,30.33,NW,318,8.0,10.0,92,0.00,,,0.01,Wunderground v.1.15,2013-05-19 04:48:00,
2013-05-18 21:53:00,51.5,49.3,30.33,NW,320,7.0,9.0,92,0.00,,,0.01,Wunderground v.1.15,2013-05-19 04:53:00,
2013-05-18 21:59:00,51.5,49.5,30.33,NW,317,7.0,9.0,93,0.00,,,0.01,Wunderground v.1.15,2013-05-19 04:59:00,
2013-05-18 22:05:00,51.5,49.5,30.33,NNW,336,6.0,9.0,93,0.00,,,0.01,Wunderground v.1.15,2013-05-19 05:05:00,
2013-05-18 22:11:00,51.3,49.3,30.33,NW,324,7.0,9.0,93,0.00,,,0.01,Wunderground v.1.15,2013-05-19 05:11:00,
2013-05-18 22:16:00,51.3,49.3,30.33,NW,323,8.0,10.0,93,0.00,,,0.01,Wunderground v.1.15,2013-05-19 05:16:00,
2013-05-18 22:22:00,51.2,49.5,30.33,NNW,347,9.0,9.0,94,0.00,,,0.01,Wunderground v.1.15,2013-05-19 05:22:00,
2013-05-18 22:27:00,51.0,49.3,30.33,NNW,348,8.0,11.0,94,0.00,,,0.01,Wunderground v.1.15,2013-05-19 05:27:00,
2013-05-18 22:33:00,50.9,49.2,30.33,NW,325,8.0,10.0,94,0.00,,,0.01,Wunderground v.1.15,2013-05-19 05:33:00,
2013-05-18 22:38:00,50.8,49.4,30.33,NNW,332,8.0,10.0,95,0.00,,,0.01,Wunderground v.1.15,2013-05-19 05:38:00,
2013-05-18 22:44:00,50.7,49.3,30.33,NNW,342,9.0,9.0,95,0.00,,,0.01,Wunderground v.1.15,2013-05-19 05:44:00,
2013-05-18 22:50:00,50.5,49.1,30.34,NW,326,8.0,8.0,95,0.00,,,0.01,Wunderground v.1.15,2013-05-19 05:50:00,
2013-05-18 22:56:00,50.4,49.0,30.34,NW,323,6.0,9.0,95,0.00,,,0.01,Wunderground v.1.15,2013-05-19 05:56:00,
2013-05-18 23:02:00,50.4,49.0,30.34,NW,323,3.0,9.0,95,0.00,,,0.01,Wunderground v.1.15,2013-05-19 06:02:00,
2013-05-18 23:07:00,50.4,49.3,30.34,NW,323,1.0,9.0,96,0.00,,,0.01,Wunderground v.1.15,2013-05-19 06:07:00,
2013-05-18 23:12:00,50.3,48.9,30.34,NW,323,1.0,9.0,95,0.00,,,0.01,Wunderground v.1.15,2013-05-19 06:12:00,
2013-05-18 23:18:00,50.3,48.9,30.34,NW,323,1.0,9.0,95,0.00,,,0.01,Wunderground v.1.15,2013-05-19 06:18:00,
2013-05-18 23:23:00,50.4,49.3,30.34,NW,323,1.0,9.0,96,0.00,,,0.01,Wunderground v.1.15,2013-05-19 06:23:00,
2013-05-18 23:28:00,50.4,49.3,30.34,NW,323,1.0,9.0,96,0.00,,,0.01,Wunderground v.1.15,2013-05-19 06:28:00,
2013-05-18 23:34:00,50.4,49.3,30.34,NW,323,2.0,9.0,96,0.00,,,0.01,Wunderground v.1.15,2013-05-19 06:34:00,
2013-05-18 23:39:00,50.5,49.4,30.34,NW,323,2.0,9.0,96,0.00,,,0.01,Wunderground v.1.15,2013-05-19 06:39:00,
2013-05-18 23:45:00,50.6,49.5,30.34,NW,323,1.0,9.0,96,0.00,,,0.01,Wunderground v.1.15,2013-05-19 06:45:00,
2013-05-18 23:51:00,50.6,49.5,30.34,NW,323,0.0,9.0,96,0.00,,,0.01,Wunderground v.1.15,2013-05-19 06:51:00,
2013-05-18 23:56:00,50.6,49.5,30.34,NW,323,1.0,9.0,96,0.00,,,0.02,Wunderground v.1.15,2013-05-19 06:56:00,